Date String (YYYY-MM-DD hh:mm:ss) UTC,Instrument flags,Ambient pressure (hPa),Sample flow (lpm),Bypass flow (lpm),Sample temperature (°C),Ambient temperature (°C),ASC tube jacket temperature (°C),LED temperature (°C),Box temperature (°C),Sample RH (%),Span deviation,Mass concentration (μg/m³),Mass concentration (μg/m³),Mass concentration (μg/m³)
DateTimeUTC,F1_M11,P_M11,Q1_M11,Q2_M11,T1_M11,T2_M11,T3_M11,T4_M11,T5_M11,U1_M11,ZSPAN_M11,X0_M11,X2_M11,X1_M11
2021-10-27 22:00:00,,0822.4,5.01,0.00,27.7,26.6,00.0,36.7,29.4,08.9,0000.0,0005.14,0001.06,0000.68
2021-10-27 22:01:00,,0822.4,5.00,0.00,27.7,26.6,00.0,36.7,29.4,08.9,0000.0,0005.17,0001.06,0000.68
2021-10-27 22:02:00,,0822.4,5.01,0.00,27.7,26.6,00.0,36.7,29.4,08.9,0000.0,0005.03,0001.01,0000.69
2021-10-27 22:03:00,,0822.4,5.01,0.00,27.7,26.6,00.0,36.7,29.4,08.8,0000.0,0004.62,0001.00,0000.69
2021-10-27 22:04:00,,0822.4,4.99,0.00,27.7,26.6,00.0,36.7,29.4,08.8,0000.0,0003.69,0001.03,0000.70
2021-10-27 22:05:00,,0822.4,5.00,0.00,27.7,26.6,00.0,36.7,29.4,08.8,0000.0,0003.32,0001.04,0000.71
2021-10-27 22:06:00,,0822.4,5.00,0.00,27.7,26.6,00.0,36.7,29.4,08.8,0000.0,0003.41,0001.05,0000.71
2021-10-27 22:07:00,,0822.5,4.99,0.00,27.7,26.6,00.0,36.7,29.4,08.7,0000.0,0003.33,0001.05,0000.72
2021-10-27 22:08:00,,0822.5,5.00,0.00,27.7,26.6,00.0,36.7,29.4,08.7,0000.0,0003.32,0001.04,0000.71
2021-10-27 22:09:00,,0822.5,5.01,0.00,27.7,26.6,00.0,36.7,29.4,08.7,0000.0,0002.15,0001.06,0000.72
2021-10-27 22:10:00,,0822.4,5.00,0.00,27.7,26.6,00.0,36.7,29.5,08.7,0000.0,0002.74,0001.10,0000.74
2021-10-27 22:11:00,,0822.5,4.99,0.00,27.7,26.6,00.0,36.7,29.5,08.7,0000.0,0004.15,0001.17,0000.76
2021-10-27 22:12:00,,0822.6,5.00,0.00,27.7,26.6,00.0,36.7,29.5,08.6,0000.0,0005.55,0001.28,0000.77
2021-10-27 22:13:00,,0822.6,5.00,0.00,27.7,26.6,00.0,36.8,29.4,08.6,0000.0,0005.58,0001.27,0000.76
2021-10-27 22:14:00,,0822.6,5.00,0.00,27.7,26.7,00.0,36.8,29.5,08.6,0000.0,0005.58,0001.28,0000.76
2021-10-27 22:15:00,,0822.6,5.00,0.00,27.7,26.7,00.0,36.8,29.5,08.5,0000.0,0005.59,0001.28,0000.75
2021-10-27 22:16:00,,0822.7,4.99,0.00,27.8,26.7,00.0,36.8,29.6,08.5,0000.0,0005.58,0001.28,0000.76
2021-10-27 22:17:00,,0822.6,4.99,0.00,27.8,26.7,00.0,36.8,29.6,08.5,0000.0,0005.46,0001.27,0000.76
2021-10-27 22:18:00,,0822.6,5.01,0.00,27.8,26.8,00.0,36.8,29.6,08.5,0000.0,0005.45,0001.27,0000.76
2021-10-27 22:19:00,,0822.7,5.02,0.00,27.8,26.8,00.0,36.8,29.6,08.5,0000.0,0005.43,0001.27,0000.76
2021-10-27 22:20:00,,0822.7,5.00,0.00,27.8,26.8,00.0,36.8,29.6,08.6,0000.0,0005.33,0001.26,0000.76
2021-10-27 22:21:00,,0822.7,4.99,0.00,27.8,26.8,00.0,36.8,29.6,08.6,0000.0,0005.38,0001.22,0000.75
2021-10-27 22:22:00,,0822.7,5.01,0.00,27.8,26.8,00.0,36.8,29.5,08.6,0000.0,0004.22,0001.12,0000.74
2021-10-27 22:23:00,,0822.8,5.01,0.00,27.8,26.8,00.0,36.8,29.6,08.6,0000.0,0002.82,0001.00,0000.72
2021-10-27 22:24:00,,0822.8,5.00,0.00,27.8,26.8,00.0,36.8,29.6,08.6,0000.0,0003.17,0001.00,0000.72
2021-10-27 22:25:00,,0823.0,4.98,0.00,27.8,26.8,00.0,36.8,29.6,08.6,0000.0,0004.26,0000.99,0000.72
2021-10-27 22:26:00,,0823.0,5.01,0.00,27.8,26.8,00.0,36.8,29.5,08.6,0000.0,0004.45,0000.97,0000.73
2021-10-27 22:27:00,,0822.9,5.00,0.00,27.8,26.7,00.0,36.8,29.5,08.5,0000.0,0004.48,0000.98,0000.74
2021-10-27 22:28:00,,0822.9,4.98,0.00,27.8,26.7,00.0,36.8,29.6,08.5,0000.0,0004.80,0001.01,0000.74
2021-10-27 22:29:00,,0822.9,4.99,0.00,27.8,26.8,00.0,36.8,29.6,08.5,0000.0,0005.08,0001.05,0000.73
2021-10-27 22:30:00,,0823.0,5.00,0.00,27.8,26.8,00.0,36.8,29.6,08.5,0000.0,0005.17,0001.09,0000.74
2021-10-27 22:31:00,,0823.1,5.00,0.00,27.8,26.8,00.0,36.8,29.6,08.5,0000.0,0005.13,0001.07,0000.74
2021-10-27 22:32:00,,0823.1,5.00,0.00,27.8,26.9,00.0,36.8,29.6,08.5,0000.0,0005.34,0001.10,0000.75
2021-10-27 22:33:00,,0823.1,5.01,0.00,27.8,26.9,00.0,36.8,29.6,08.5,0000.0,0005.43,0001.09,0000.75
2021-10-27 22:34:00,,0823.0,5.00,0.00,27.8,26.9,00.0,36.8,29.6,08.5,0000.0,0005.38,0001.07,0000.75
2021-10-27 22:35:00,,0823.0,5.00,0.00,27.8,27.0,00.0,36.8,29.6,08.5,0000.0,0004.95,0001.05,0000.75
2021-10-27 22:36:00,,0823.1,5.01,0.00,27.8,27.0,00.0,36.8,29.6,08.5,0000.0,0003.86,0001.03,0000.74
2021-10-27 22:37:00,,0823.1,4.99,0.00,27.9,27.0,00.0,36.9,29.6,08.5,0000.0,0003.60,0001.03,0000.74
2021-10-27 22:38:00,,0823.1,5.00,0.00,27.9,27.0,00.0,36.9,29.6,08.4,0000.0,0004.17,0001.01,0000.73
2021-10-27 22:39:00,,0823.2,5.01,0.00,27.9,27.0,00.0,36.9,29.6,08.4,0000.0,0003.96,0000.99,0000.74
2021-10-27 22:40:00,,0823.2,5.00,0.00,27.9,27.0,00.0,36.9,29.6,08.4,0000.0,0003.68,0000.99,0000.74
2021-10-27 22:41:00,,0823.3,5.00,0.00,27.9,27.0,00.0,36.9,29.7,08.5,0000.0,0003.58,0000.96,0000.74
2021-10-27 22:42:00,,0823.4,5.01,0.00,27.9,27.0,00.0,36.9,29.7,08.5,0000.0,0003.55,0000.94,0000.73
2021-10-27 22:43:00,,0823.4,5.00,0.00,27.9,26.9,00.0,36.9,29.7,08.5,0000.0,0003.04,0000.91,0000.73
2021-10-27 22:44:00,,0823.3,4.99,0.00,27.9,26.9,00.0,36.9,29.6,08.5,0000.0,0003.01,0000.95,0000.73
2021-10-27 22:45:00,,0823.3,4.99,0.00,27.9,26.9,00.0,36.9,29.7,08.5,0000.0,0003.05,0000.96,0000.72
2021-10-27 22:46:00,,0823.2,5.01,0.00,27.9,26.9,00.0,36.9,29.7,08.5,0000.0,0003.15,0001.00,0000.73
2021-10-27 22:47:00,,0823.2,4.99,0.00,27.9,26.9,00.0,36.9,29.7,08.5,0000.0,0003.92,0001.02,0000.74
2021-10-27 22:48:00,,0823.3,5.01,0.00,27.9,26.9,00.0,36.9,29.7,08.5,0000.0,0004.20,0001.05,0000.74
2021-10-27 22:49:00,,0823.3,4.99,0.00,28.0,26.9,00.0,36.9,29.7,08.5,0000.0,0003.62,0001.09,0000.74
2021-10-27 22:50:00,,0823.3,5.01,0.00,28.0,26.9,00.0,36.9,29.7,08.5,0000.0,0003.54,0001.07,0000.74
2021-10-27 22:51:00,,0823.4,5.00,0.00,28.0,26.9,00.0,36.9,29.7,08.5,0000.0,0005.21,0001.12,0000.75
2021-10-27 22:52:00,,0823.3,5.00,0.00,28.0,26.9,00.0,36.9,29.7,08.5,0000.0,0005.61,0001.20,0000.76
2021-10-27 22:53:00,,0823.3,5.00,0.00,28.0,26.9,00.0,36.9,29.7,08.6,0000.0,0005.70,0001.23,0000.76
2021-10-27 22:54:00,,0823.4,4.99,0.00,28.0,26.9,00.0,36.9,29.7,08.6,0000.0,0005.46,0001.24,0000.76
2021-10-27 22:55:00,,0823.4,4.99,0.00,28.0,26.9,00.0,36.9,29.7,08.6,0000.0,0004.79,0001.21,0000.77
2021-10-27 22:56:00,,0823.4,4.99,0.00,28.0,27.0,00.0,37.0,29.7,08.6,0000.0,0004.80,0001.23,0000.77
2021-10-27 22:57:00,,0823.4,5.00,0.00,28.0,27.0,00.0,37.0,29.7,08.6,0000.0,0004.77,0001.22,0000.76
2021-10-27 22:58:00,,0823.3,5.01,0.00,28.0,27.0,00.0,37.0,29.7,08.6,0000.0,0004.19,0001.21,0000.75
2021-10-27 22:59:00,,0823.3,5.00,0.00,28.0,27.0,00.0,37.0,29.7,08.7,0000.0,0004.01,0001.20,0000.74
